SCP
0 0 0 0 0 0 0 0 1 1 1 2 2 3 4 3 2 2 2 2 2 1
0 0 0 0 0 0 0 0 0 0 0 1 1 2 4 3 3 2 2 2 2 2
0 0 0 0 0 0 0 0 0 0 0 1 1 2 3 4 3 3 2 2 2 1
0 0 0 0 0 0 0 0 0 0 0 1 1 2 3 3 2 2 2 1 1 0
0 0 0 0 0 0 0 0 0 0 0 1 1 1 2 3 3 2 1 0 0 0
0 0 0 0 0 0 0 0 0 0 0 0 1 1 2 3 2 1 1 0 0 0
0 0 0 0 0 0 0 0 0 0 0 0 0 2 2 1 1 0 0 0 0 0
0 0 0 0 0 0 -0 0 0 0 0 1 1 1 1 0 0 0 0 0 0 0
0 0 -0 0 -0 0 -0 0 0 0 0 0 0 0 0 0 0 0 0 0 0 0
0 0 0 0 0 -0 -0 0 0 0 0 0 0 0 0 0 0 0 0 0 0 0
0 0 0 -0 -0 -0 -0 0 0 0 0 0 0 0 0 0 0 0 0 0 0 0
-0 -0 -0 -0 0 0 -0 0 0 0 0 0 0 0 0 0 0 0 0 0 0 0
-0 0 0 0 0 0 0 0 0 0 0 0 0 0 0 0 0 0 0 0 0 0
-0 -0 0 0 0 0 0 0 0 0 0 0 0 0 -0 0 0 0 0 0 0 0
Wind_Speed_500mb
53 50 56 54 53 49 52 53 51 58 63 64 66 66 65 59 54 50 55 63 63 60
60 54 54 56 55 64 55 53 57 56 61 62 62 67 65 62 59 53 46 50 62 61
59 61 61 63 66 69 68 59 58 58 59 63 64 64 68 64 59 53 50 46 48 68
63 64 68 70 73 71 66 64 59 58 59 59 62 61 64 67 57 58 55 50 59 61
68 63 65 68 72 70 65 63 57 56 56 53 59 63 59 63 64 59 54 52 59 62
70 69 68 68 68 64 58 58 58 53 55 55 56 59 63 64 66 48 49 50 57 61
66 64 63 61 59 59 53 49 51 52 53 57 55 63 62 66 66 57 53 52 57 59
65 57 54 58 49 47 45 46 47 45 50 54 60 65 67 66 58 57 58 55 58 59
54 49 51 53 29 23 22 29 36 49 59 61 64 65 61 56 53 53 56 65 67 62
49 43 38 26 14 19 26 34 47 56 56 56 59 56 51 52 52 59 63 63 59 55
43 34 18 9 9 16 19 27 36 42 46 49 42 39 46 51 61 68 67 61 55 50
34 21 3 12 23 33 38 31 32 40 39 40 44 32 36 51 68 71 66 57 54 49
21 9 10 27 38 43 42 45 45 49 51 58 61 52 61 70 75 76 73 64 54 39
16 15 19 31 41 47 52 55 59 64 65 68 73 75 78 80 81 81 76 64 54 42
Wind_Direction_500mb
291 286 277 272 271 269 268 267 261 247 244 242 235 234 231 230 234 239 239 242 237 234
295 287 279 273 273 278 271 268 265 251 244 239 237 232 230 227 228 227 234 238 244 241
294 292 286 282 271 266 270 264 259 253 247 239 234 231 227 228 226 225 231 235 233 242
293 289 288 285 282 278 268 264 255 251 245 239 233 229 225 224 225 222 230 246 235 241
299 294 287 284 282 276 268 262 248 249 242 234 229 226 224 220 222 218 229 240 230 224
306 303 298 292 285 271 265 259 243 243 238 227 225 222 219 217 221 210 221 224 219 224
314 310 304 297 286 267 257 248 245 239 230 227 222 216 213 214 211 200 211 209 210 203
313 311 310 308 294 269 257 244 243 232 222 216 212 209 209 205 211 213 211 205 194 186
322 322 318 320 297 263 254 237 223 218 211 204 206 207 203 209 206 200 196 184 177 170
331 330 323 304 253 213 204 205 204 201 199 187 188 195 200 196 184 180 176 166 163 156
339 331 313 298 211 193 173 154 149 152 160 166 171 189 185 189 174 166 156 152 146 135
344 332 335 112 120 126 132 133 138 131 137 151 150 185 191 182 159 143 135 128 119 118
351 356 109 120 123 131 139 132 132 130 133 136 140 153 152 147 141 134 128 120 120 117
25 68 106 123 124 123 127 128 124 125 127 132 137 141 140 136 133 129 124 120 109 104
Wind_Speed_850mb
53 50 56 54 53 49 52 53 51 58 63 64 66 66 65 59 54 50 55 63 63 60
60 54 54 56 55 64 55 53 57 56 61 62 62 67 65 62 59 53 46 50 62 61
59 61 61 63 66 69 68 59 58 58 59 63 64 64 68 64 59 53 50 46 48 68
63 64 68 70 73 71 66 64 59 58 59 59 62 61 64 67 57 58 55 50 59 61
68 63 65 68 72 70 65 63 57 56 56 53 59 63 59 63 64 59 54 52 59 62
70 69 68 68 68 64 58 58 58 53 55 55 56 59 63 64 66 48 49 50 57 61
66 64 63 61 59 59 53 49 51 52 53 57 55 63 62 66 66 57 53 52 57 59
65 57 54 58 49 47 45 46 47 45 50 54 60 65 67 66 58 57 58 55 58 59
54 49 51 53 29 23 22 29 36 49 59 61 64 65 61 56 53 53 56 65 67 62
49 43 38 26 14 19 26 34 47 56 56 56 59 56 51 52 52 59 63 63 59 55
43 34 18 9 9 16 19 27 36 42 46 49 42 39 46 51 61 68 67 61 55 50
34 21 3 12 23 33 38 31 32 40 39 40 44 32 36 51 68 71 66 57 54 49
21 9 10 27 38 43 42 45 45 49 51 58 61 52 61 70 75 76 73 64 54 39
16 15 19 31 41 47 52 55 59 64 65 68 73 75 78 80 81 81 76 64 54 42
Wind_Direction_850mb
291 286 277 272 271 269 268 267 261 247 244 242 235 234 231 230 234 239 239 242 237 234
295 287 279 273 273 278 271 268 265 251 244 239 237 232 230 227 228 227 234 238 244 241
294 292 286 282 271 266 270 264 259 253 247 239 234 231 227 228 226 225 231 235 233 242
293 289 288 285 282 278 268 264 255 251 245 239 233 229 225 224 225 222 230 246 235 241
299 294 287 284 282 276 268 262 248 249 242 234 229 226 224 220 222 218 229 240 230 224
306 303 298 292 285 271 265 259 243 243 238 227 225 222 219 217 221 210 221 224 219 224
314 310 304 297 286 267 257 248 245 239 230 227 222 216 213 214 211 200 211 209 210 203
313 311 310 308 294 269 257 244 243 232 222 216 212 209 209 205 211 213 211 205 194 186
322 322 318 320 297 263 254 237 223 218 211 204 206 207 203 209 206 200 196 184 177 170
331 330 323 304 253 213 204 205 204 201 199 187 188 195 200 196 184 180 176 166 163 156
339 331 313 298 211 193 173 154 149 152 160 166 171 189 185 189 174 166 156 152 146 135
344 332 335 112 120 126 132 133 138 131 137 151 150 185 191 182 159 143 135 128 119 118
351 356 109 120 123 131 139 132 132 130 133 136 140 153 152 147 141 134 128 120 120 117
25 68 106 123 124 123 127 128 124 125 127 132 137 141 140 136 133 129 124 120 109 104